Погода в Куре

Погода в Куре : погода сейчас, прогноз погоды и архив. Всё, что Вы хотите узнать о погоде в Куре!

Поиск расширенной информации на нашем сайте:

Другие новости

Новости СМИ2

Главная страница сайта

Новости сайта

02.10.2013

Напоминаем, что на нашем новом сайте вы можете получить высокодетализированные прогнозы погоды по пунктам России, СНГ и мира (включающие важные для авиации метеовеличины, такие как направление и скорость ветра, видимость, явления погоды, количество и форма облачности, нижняя и верхняя граница облачности), а также ознакомиться с разнообразными материалами по авиационной метеорологии и подборкой полезных ссылок на эту тему.

Сайт Метеоцентр.Азия посвящён разработке технологий оптимизации авиаметеорологического обслуживания, включая проектирование и перспективное создание нескольких автоматизированных авиаметеорологических систем:
- система выпуска высокодетальных прогностических карт явлений погоды для нижнего воздушного пространства по России и ближнему зарубежью;
- система верификации прогнозов TAF (выпускаемых синоптиками официальных АМСГ РФ и ближнего зарубежья) и AUTOTAF (выпускаемых сайтом Метеоцентр.Азия) - выявление ошибок, онлайн-сопоставление с фактической погодой METAR, автоматическое внесение коррективов в прогнозы при резком отклонении фактической погоды от прогноза, подсчёт оправдываемости прогнозов по элементам и в целом;
- система обработки, анализа и отображения авиаметеорологической информации для применения провайдерами метеорологической информации.


Погода в Куре - сегодня

Время (UTC), дата Ветер
(°,м/с) 
Видим.   Явления Облачность Т
(°С)
Тd
(°С)
f(%) Тe
(°С)
Pmin
(гПа)
dP
(гПа)
Po
(мм)
O2
(г/м3)
Тmin Tmax R s Состояние
почвы
21 24.05.17 тихо ()   20000 м  {дождь}  8/4 600 м средняя, верхняя 
[Cu Sc|Ac lent|Ci sp]
+6.5 +5.7 95 +7  1011.1  1.3  733  287  +4.4    0.7    влажная 
00 25.05.17 050 (СВ) 20000 м  {дождь}  9/6 600 м средняя 
[Cu Sc|Ac As]
+12.9 +2.4 49 +13  1011.3  0.9  733  282           
03 25.05.17 230 (ЮЗ) 20000 м    8/8 600 м 
[Cu med, cong]
+15 +3.1 45 +16  1010.8  -0.2  733  280           
06 25.05.17 200 (Ю) 20000 м    6/6 600 м 
[Cu med, cong]
+17.3 +4.4 42 +18  1009.9  -0.7  733  277           
09 25.05.17 220 (ЮЗ) 20000 м    4/4 600 м 
[Cu med, cong]
+14.9 +4.8 51 +15  1010.8  0.7  733  279    +17.7       
12 25.05.17 тихо ()   20000 м    ясно 
+8.8 +4.9 76 +9  1013.4  1.8  735  286           
15 25.05.17 тихо ()   20000 м    ясно 
+4.5 +4.2 98 +5  1014  735  291           
18 25.05.17 тихо ()   20000 м    ясно 
+1.1 +1.1 100 +1  1013.7  -0.7  734  294           
21 25.05.17 тихо ()   20000 м    ясно 
+4.3 +3.4 94 +4  1012.8  -0.5  734  290  -0.5        влажная 
00 26.05.17 270 (З) 20000 м    ясно 
+15.6 +4.9 49 +17  1010.3  -1  733  279           
03 26.05.17 190 (Ю) 20000 м    8/8 600 м 
[Cu med, cong]
+23.3 -0.2 21 +23  1007.7  -1.7  732  272           
06 26.05.17 200 (Ю) 20000 м    8/8 600 м 
[Cu hum]
+23.3 -0.5 21 +23  1006.1  -1.5  731  271           
09 26.05.17 230 (ЮЗ) 20000 м    4/4 600 м 
[Cu hum]
+23.5 -1.8 18 +24  1005.5  -0.6  730  271    +25       
12 26.05.17 тихо ()   20000 м    ясно 
+13.4 +3.3 50 +13  1008.1  1.4  731  280           
15 26.05.17 тихо ()   20000 м    ясно 
+6.2 +4.1 86 +6  1010.3  1.3  732  288           
18 26.05.17 тихо ()   20000 м    ясно 
+3.7 +3.3 97 +4  1010.8  0.2  732  291           
00 27.05.17 340 (С) 20000 м    ясно 
+17.8 +2.2 35 +19  1008.9  -0.9  732  277           
03 27.05.17 200 (Ю) 20000 м    1/1 600 м 
[Cu hum]
+25.6 -0.2 18 +26  1006.2  -1.9  731  269           
06 27.05.17 230 (ЮЗ) 20000 м    3/1 600 м верхняя 
[Cu hum|Cs]
+27.3 -1.3 15 +27  1003.9  -2  729  267           
12 27.05.17 220 (ЮЗ) 20000 м    3/0 средняя, верхняя 
[Ac lent|Ci fib]
+20.2 +3.1 32 +20  1004.5  729  273           
15 27.05.17 тихо ()   20000 м    ясно 
+10.4 +5.8 73 +10  1006  0.4  729  282           
18 27.05.17 тихо ()   20000 м    3/0 верхняя 
[Ci fib]
+5.7 +5.3 97 +6  1005.8  -0.7  729  287           
00 28.05.17 310 (СЗ) 20000 м    ясно 
+19.2 +5.8 41 +21  1002.3  -1.6  727  273           
03 28.05.17 200 (Ю) 20000 м    3/3 600 м 
[Cu hum]
+26.9 +4.4 24 +27  998.7  -2.7  725  265           
06 28.05.17 190 (Ю) 2{11}  20000 м    6/6 600 м 
[Cu hum]
+28.5 +3.6 20 +29  995.6  -2.9  723  263           
Время (UTC), дата Ветер
(°,м/с) 
Видим.   Явления Облачность Т
(°С)
Тd
(°С)
f(%) Тe
(°С)
Pmin
(гПа)
dP
(гПа)
Po
(мм)
O2
(г/м3)
Тmin Tmax R s Состояние
почвы

Для получения пояснительной информации подведите курсор к названию столбца.

ПОГОДА в Куре - архив

Всё, что Вы хотите узнать о погоде в Куре - удобно и подробно!

Выберите нужную дату (начиная с 1 января 2015* года) и нажмите кнопку "Найти".
Будут отображены архивные сводки погоды по пункту Кур, начиная с указанной даты.


Отображать данные в формате CSV (для использования в таблицах Excel)


Внимание! Наш архив погоды предназначен исключительно для личного некоммерческого использования в познавательных целях. Если Вам необходимы официальные справки о состоянии погоды (для производственных, юридических, коммерческих и т.п. целей), обращайтесь в органы Росгидромета.

*Примечание: данная дата относится к архиву по метеостанциям СССР (Россия, СНГ, Балтия).
Архив по метеостанциям Зарубежной Европы и Азии (кроме Китая) хранится 10 дней, по другим регионам земного шара (Китай, Африка, Америка, Австралия, Океания) - 1 день.

Кур - район местоположения метеостанции


Название, широта, долгота, высота метеостанции:
Кур 49.9°ш. 134.6°д. 283 м над ур. моря [Российская Федерация]

Дополнительная информация

В oтличие oт бoльшинства пoгoдных сайтoв мы публикуем пoдрoбную метеoинфoрмацию в детальнoм прoфессиoнальнoм фoрмате.

Характеристики температуры и влажнoсти вoздуха измеряются на высoте 2 м в тени вдали oт зданий и деревьев.
Скoрoсть ветра измеряется на высoте 10 м (на урoвне рoста челoвека скoрoсть ветра ниже в 1.5-2 раза). Если метеoстанция нахoдится в гoрoде или в лесу, тo скoрoсть ветра занижена на 2-4 м/с пo сравнению с oткрытым местoм. Скoрoсть ветра над акватoриями крупных рек и oзёр, а также на вершинах хoлмoв на 2-5 м/с выше, чем в oбычных услoвиях.
Атмoсфернoе давление в разных тoчках местнoсти мoжет значительнo oтличаться oт давления на метеoстанции, в зависимoсти oт услoвий рельефа (при пoдъёме на 10 м давление пoнижается примернo на 1 мм рт.ст.).